Погода в Кызылорде

Хотите узнать прогноз погоды в Кызылорде? Тогда Вам сюда: Погода в Кызылорде

Поиск расширенной информации на нашем сайте:

Полезная информация:

Новости сайта



02.01.2020
Опубликован Долгосрочный прогноз погоды по городам России и ближнего зарубежья на январь 2020 года.
Карты: Прогноз на январь и февраль 2020 года, Сравнение прогнозируемой аномалии приземной температуры воздуха на январь 2020 года по разным моделям.




Погода в Кызылорде - сегодня

Время (UTC), дата Ветер
(°,м/с) 
Видим.   Явления Облачность Т
(°С)
Тd
(°С)
f(%) Тe
(°С)
Pmin
(гПа)
dP
(гПа)
Po
(мм)
O2
(г/м3)
Тmin Tmax R s Состояние
почвы
00 19.01.20 тихо ()   н/о    ясно 
-8 -9 93 -8  1021.4  -1  753  314           
03 19.01.20 тихо ()   20000 м    8/0 средняя 
[Ac trans]
-7.7 -8.7 93 -8  1021  -0.4  753  313        равномерный
мокрый или
старый снег
100% 
06 19.01.20 тихо ()   20000 м    9/0 средняя 
[Ac lent]
-4.5 -7.6 79 -5  1022  1.2  754  310  -8.4         
09 19.01.20 140 (ЮВ) 20000 м    9/0 средняя 
[Ac As]
+0.4 -5.8 63 1020.4  -1.3  753  304           
12 19.01.20 тихо ()   20000 м    9/0 средняя, верхняя 
[Ac lent|Ci]
+0.2 -5.7 64 1021.2  0.8  754  304           
15 19.01.20 тихо ()   н/о  дымка  9/9 1000 м 
[Sc]
-1.9 -4 86 -2  1023  1.6  755  307    +1       
18 19.01.20 180 (Ю) н/о  в посл. час снег  10/10 600 м 
[Sc]
-1.7 -3.8 86 -1  1023.5  0.5  755  307    +1       
21 19.01.20 тихо ()   н/о  слаб. снег  10/10 600 м 
[Sc]
-1.8 -2.6 94 -2  1024.1  0.6  756  307           
00 20.01.20 тихо ()   н/о  слаб. снег  10/10 600 м 
[Ns]
-1.6 -2.4 94 -2  1024.6  0.5  756  307           
03 20.01.20 тихо ()   4000 м  дымка{снег}  9/9 1000 м 
[Cu Sc]
-1.8 -2.6 94 -2  1024.9  0.3  756  307      0.0  равномерный
мокрый или
старый снег
100% 
06 20.01.20 тихо ()   20000 м  {снег}  8/3 1500 м средняя, верхняя 
[Sc diur, vesp|Ac cast|Ci fib]
+0.3 -4.1 72 1025.8  757  305  -2.7    0.0     
09 20.01.20 270 (З) 20000 м    6/3 1500 м средняя 
[Sc diur, vesp|Ac cast]
+2.5 -3.1 66 +1  1024.7  -1  756  302           
12 20.01.20 250 (З) 20000 м    6/3 1500 м средняя 
[Sc diur, vesp|Ac cast]
+0.9 -3 75 1024.9  0.2  756  304           
15 20.01.20 260 (З) н/о  дымка  10/10 600 м 
[Sc]
-1.5 -3.2 88 -2  1025.6  0.6  757  307    +3.1       
18 20.01.20 290 (З) н/о  снежные зёрна  10/10 600 м 
[Frnb]
-2.2 -3.4 91 -2  1025.3  -0.4  757  308    +3.1       
21 20.01.20 270 (З) н/о  снежные зёрна  10/10 300 м 
[St]
-5.2 -6.2 93 -7  1025.1  -0.4  756  311           
00 21.01.20 250 (З) н/о  дымка{снег}  10/10 600 м 
[St]
-5.9 -6.6 95 -7  1025.3  0.1  756  312           
03 21.01.20 260 (З) 4000 м  дымка  10/10 600 м 
[Frnb]
-5.2 -6.2 93 -8  1025.1  -0.1  756  311      0.0  мокрый или
старый снег
50-90% 
06 21.01.20 270 (З) 4000 м  снежные зёрна  10/10 300 м 
[Frnb]
-6.3 -8.2 86 -9  1026.1  0.9  757  313  -6.6    0.0     
09 21.01.20 240 (ЮЗ) 20000 м  {снег}  8/3 1000 м средняя, верхняя 
[Sc diur, vesp|Ac lent|Ci]
-1.9 -8.2 62 -3  1024.9  -0.9  756  308           
12 21.01.20 260 (З) 20000 м  {снег}  8/8 1000 м 
[Sc diur, vesp]
-2.8 -7.3 71 -4  1025.4  0.5  757  309           
15 21.01.20 270 (З) н/о    9/9 1000 м 
[Cu Sc]
-4 -7 80 -5  1026.3  0.7  757  310    -1.3  0.0     
18 21.01.20 250 (З) н/о    9/9 1000 м 
[Cu Sc]
-4.3 -6.2 87 -6  1026.1  -0.2  757  311    -1.3  0.0     
21 21.01.20 240 (ЮЗ) н/о    5/5 1000 м 
[Cu Sc]
-5.8 -7.3 89 -7  1026  -0.2  757  312           
00 22.01.20 250 (З) н/о    8/8 1000 м 
[Cu Sc]
-6.3 -7.5 91 -9  1025.9  -0.1  757  313           
Время (UTC), дата Ветер
(°,м/с) 
Видим.   Явления Облачность Т
(°С)
Тd
(°С)
f(%) Тe
(°С)
Pmin
(гПа)
dP
(гПа)
Po
(мм)
O2
(г/м3)
Тmin Tmax R s Состояние
почвы

Для получения пояснительной информации подведите курсор к названию столбца.

ПОГОДА в Кызылорде - архив

Всё, что Вы хотите узнать о погоде в Кызылорде - удобно и подробно!

Выберите нужную дату (начиная с 1 января 2019* года) и нажмите кнопку "Найти".
Будут отображены архивные сводки погоды по пункту Кызылорда, начиная с указанной даты.


Отображать данные в формате CSV (для использования в таблицах Excel)


Внимание! Наш архив погоды предназначен исключительно для личного некоммерческого использования в познавательных целях. Если Вам необходимы официальные справки о состоянии погоды (для производственных, юридических, коммерческих и т.п. целей), обращайтесь в органы Росгидромета.

*Примечание: данная дата относится к архиву по метеостанциям СССР (Россия, СНГ, Балтия).
Архив по метеостанциям Зарубежной Европы и Азии (кроме Китая) хранится 10 дней, по другим регионам земного шара (Китай, Африка, Америка, Австралия, Океания) - 1 день.

Кызылорда - район местоположения метеостанции


Название, широта, долгота, высота метеостанции:
Кызылорда (город) 44.8°ш. 65.5°д. 130 м над ур. моря [Казахстан]

Дополнительная информация

В oтличие oт бoльшинства пoгoдных сайтoв мы публикуем пoдрoбную метеoинфoрмацию в детальнoм прoфессиoнальнoм фoрмате.

Характеристики температуры и влажнoсти вoздуха измеряются на высoте 2 м в тени вдали oт зданий и деревьев.
Скoрoсть ветра измеряется на высoте 10 м (на урoвне рoста челoвека скoрoсть ветра ниже в 1.5-2 раза). Если метеoстанция нахoдится в гoрoде или в лесу, тo скoрoсть ветра занижена на 2-4 м/с пo сравнению с oткрытым местoм. Скoрoсть ветра над акватoриями крупных рек и oзёр, а также на вершинах хoлмoв на 2-5 м/с выше, чем в oбычных услoвиях.
Атмoсфернoе давление в разных тoчках местнoсти мoжет значительнo oтличаться oт давления на метеoстанции, в зависимoсти oт услoвий рельефа (при пoдъёме на 10 м давление пoнижается примернo на 1 мм рт.ст.).